Location: Heiligenberg
(48.5381°N, 7.3897°E)
Time: 20:33:51
(UTC+00:00)

Meteor 2-10 Rocket - Pass Details

Date: 26 May 2022
Orbit: 733 x 885 km, 81.2° (Epoch: 02 July)

Event Time Altitude Azimuth Distance (km) Brightness Sun altitude
Rises 00:30:00 0° 348° (NNW) 3,469 8.0 -19.0°
Reaches altitude 10° 00:32:29 10° 349° (N) 2,511 7.1 -18.9°
Maximum altitude 00:38:13 85° 77° (ENE) 849 3.7 -18.6°
Enters shadow 00:41:18 27° 166° (SSE) 1,523 4.6 -18.4°
